Home   Weather   Caguas   Past weeks

Flag for Puerto Rico Past Weather in Caguas, Puerto Rico — Yesterday and Last 2 Weeks

Now
85 °F

Scattered clouds.


Feels Like: 91 °F
Forecast: 76 / 87 °F
Wind: 12 mph from East

Location: Luis Munoz Marin

Current Time: Apr 27, 2017 at 11:15:05 am

Latest Report: Apr 27, 2017 at 9:56 am


Visibility: 10 mi

Pressure: 30.03 "Hg

Humidity: 65%

Dew Point: 72 °F

Location of CaguasLocation

Past Weather in Caguas — Graph

°F

Caguas Temperature Yesterday

Maximum temperature yesterday: 86 °F (at 10:56 am)
Minimum temperature yesterday: 79 °F (at 4:56 am)
Average temperature yesterday: 82 °F

High & Low Weather Summary for the Past Weeks

 TemperatureHumidityPressure
High91 °F (Apr 25, 11:56 am)100% (Apr 17, 7:26 am)30.07 "Hg (Apr 17, 7:26 am)
Low75 °F (Apr 14, 5:56 am)57% (Apr 22, 11:56 am)29.87 "Hg (Apr 24, 5:56 pm)
Average81 °F77%29.97 "Hg
* Reported Apr 12 9:56 am — Apr 27 9:56 am, Caguas, Weather by CustomWeather, © 2017

Note: Actual official high and low records may vary slightly from our data, if they occured in-between our weather recording intervals... More about our weather records

Advertising

Caguas Weather History for the Previous 24 Hours

Scroll right to see more
 ConditionsComfort  
Time TempWeatherWind HumidityBarometerVisibility
9:56 am
Thu, Apr 27
85 °FScattered clouds.12 mph65%30.03 "Hg10 mi
8:56 am84 °FScattered clouds.14 mph67%30.03 "Hg10 mi
7:56 am82 °FScattered clouds.9 mph77%30.01 "Hg10 mi
6:56 am78 °FPassing clouds.8 mph87%30.00 "Hg10 mi
5:56 am78 °FPassing clouds.6 mph90%29.98 "Hg10 mi
4:56 am78 °FPassing clouds.5 mph87%29.96 "Hg10 mi
3:56 am78 °FPassing clouds.No wind87%29.96 "Hg10 mi
2:56 am78 °FPassing clouds.5 mph87%29.96 "Hg10 mi
1:56 am78 °FPassing clouds.No wind87%29.97 "Hg10 mi
12:56 am78 °FPassing clouds.3 mph90%29.98 "Hg10 mi
11:56 pm
Wed, Apr 26
80 °FPassing clouds.5 mph85%30.01 "Hg10 mi
10:56 pm79 °FPassing clouds.7 mph88%30.01 "Hg10 mi
9:56 pm80 °FPassing clouds.9 mph85%30.00 "Hg10 mi
8:56 pm80 °FPassing clouds.9 mph85%29.99 "Hg10 mi
7:56 pm81 °FPassing clouds.9 mph82%29.97 "Hg10 mi
6:56 pm82 °FScattered clouds.7 mph79%29.95 "Hg10 mi
5:56 pm83 °FScattered clouds.9 mph82%29.93 "Hg10 mi
4:56 pm84 °FScattered clouds.5 mph80%29.92 "Hg10 mi
3:56 pm79 °FBroken clouds.5 mph90%29.93 "Hg10 mi
2:56 pm81 °FBroken clouds.8 mph88%29.93 "Hg10 mi
2:06 pm82 °FHeavy rain. Scattered clouds.14 mph82%29.92 "Hg10 mi
1:56 pm84 °FScattered clouds.14 mph77%29.93 "Hg10 mi
12:56 pm84 °FRain. Scattered clouds.9 mph77%29.94 "Hg10 mi
11:56 am86 °FScattered clouds.N/A72%29.95 "Hg10 mi
Weather by CustomWeather, © 2017

See weather overviewHow to use our weather pages